Location: Cheyres
(46.8153°N, 6.7877°E)
Time: 11:06:07
(UTC+00:00)

Gbstr 26 Del rocket - Pass Details

Date: 21 September 2021
Orbit: 492 x 1263 km, 51.8° (Epoch: 18 October)

Event Time Altitude Azimuth Distance (km) Brightness Sun altitude
Exits shadow 01:26:31 59° 339° (NNW) 1,397 4.7 -35.7°
Maximum altitude 01:27:18 62° 5° (N) 1,358 4.7 -35.6°
Drops below altitude 10° 01:34:39 10° 86° (E) 2,972 7.0 -34.8°
Sets 01:37:14 0° 90° (E) 3,833 7.6 -34.5°
